{"data":{"norad_id":68054,"intl_designator":"2026-041Q","name":"STARLINK-36924","alt_names":[],"object_type":"PAYLOAD","status":"ACTIVE","operator":null,"country":"US","launch_date":"2026-03-02","launch_site_code":"AFETR","launch_vehicle":null,"mission":null,"orbit_class":"UNKNOWN","rcs_meters":null,"size_class":null,"mass_kg":null,"dimensions":null,"purposes":["comms"],"wikipedia_slug":null,"has_3d_model":false,"image_url":null,"decayed_at":null,"tle_current":{"epoch":"2026-09-19T10:35:41.003520Z","epoch_age_seconds":151109,"freshness":"FRESH","line1":"1 68054U 26041Q   26262.44144680  .00018974  00000+0  57108-3 0  9997","line2":"2 68054  53.1577 224.8898 0001028 109.6207 250.4907 15.34410154 31122","mean_motion":15.34410154,"eccentricity":0.0001028,"inclination_deg":53.1577,"raan_deg":224.8898,"arg_perigee_deg":109.6207,"mean_anomaly_deg":250.4907,"bstar":0.00057108,"rev_number":3112,"period_min":93.8471370413,"perigee_km":461.96982527145,"apogee_km":463.3762958199,"semimajor_km":6840.8100605457,"source":"CELESTRAK","updated_at":"2026-09-20T09:00:43.749848Z"}}}